Regional Weather Roundup
Issued by NWS

Home | Current Version | Previous Version | Graphics & Text | Print | Product List | Glossary On
Versions: 1 2 3 4 5 6 7 8 9 10 11 12 13 14 15 16 17 18 19 20 21 22 23 24 25 26 27 28 29 30 31 32 33 34 35 36 37 38 39 40 41 42 43 44 45 46 47 48 49 50
000
ASUS43 KFSD 200210
RWRSD

WEATHER ROUNDUP FOR SOUTH DAKOTA
NATIONAL WEATHER SERVICE SIOUX FALLS SD
900 PM CDT SAT APR 19 2014

NOTE: "FAIR" INDICATES FEW OR NO CLOUDS BELOW 12,000 FEET WITH NO
SIGNIFICANT WEATHER AND/OR OBSTRUCTIONS TO VISIBILITY.


SDZ001>005-009-010-012>017-200300-
NORTHWEST AND NORTH CENTRAL SOUTH DAKOTA

CITY           SKY/WX    TMP DP  RH WIND       PRES   REMARKS
BUFFALO          N/A     58  19  22 E6        29.90S
FAITH            N/A     51  28  41 S10       29.98R
MOBRIDGE       CLEAR     49  27  42 N3        29.95R
$$

SDZ012>016-024>037-041>051-057-063-072>074-200300-
SOUTHWEST AND SOUTH CENTRAL SOUTH DAKOTA

CITY           SKY/WX    TMP DP  RH WIND       PRES   REMARKS
RAPID CTY ARPT MOCLDY    51  31  46 SE9       29.98S
PIERRE         MOCLDY    52  26  36 S3        29.98R
CUSTER         PTCLDY    47  29  49 S3        30.04R
ELLSWORTH AFB  MOCLDY    54  32  42 SE14      29.98S
PHILIP         MOCLDY    55  26  32 CALM      29.99S
PINE RIDGE     MOCLDY    55  30  38 E6        29.99R
SPEARFISH      FAIR      50  32  50 SE5       29.99S
WINNER         FAIR      59  22  24 SE7       30.01S
$$

SDZ004>011-016>023-039-040-200300-
NORTHEAST SOUTH DAKOTA

CITY           SKY/WX    TMP DP  RH WIND       PRES   REMARKS
ABERDEEN       PTCLDY    52  27  38 W7        29.97R
WATERTOWN      MOCLDY    56  25  30 SW5       29.99S
SISSETON         N/A     50  35  56 SW8       29.96R
$$

SDZ017-020-022-023-036>040-048>070-200300-
SOUTHEAST SOUTH DAKOTA

CITY           SKY/WX    TMP DP  RH WIND       PRES   REMARKS
SIOUX FALLS    CLOUDY    60  36  40 NE5       30.00R
HURON          CLOUDY    60  26  27 SW6       29.99R
CHAMBERLAIN      N/A     57  23  26 E6        30.01S
MITCHELL       MOCLDY    60  25  26 MISG      30.01R
YANKTON        MOCLDY    57  39  51 NW7       29.99S
$$

ABBREVIATIONS USED IN REMARKS
   TC - TEMPERATURE IN CELSIUS
  WCI - WIND CHILL INDEX
   HX - HEAT INDEX
  VSB - VISIBILITY




USA.gov is the U.S. government's official web portal to all federal, state and local government web resources and services.